Year,Month,Day,Hour,Minute,Value (Times are PST for temperature in C)
2017,06,24,00,00,17.70
2017,06,24,00,01,17.70
2017,06,24,00,02,17.60
2017,06,24,00,03,17.60
2017,06,24,00,04,17.50
2017,06,24,00,05,17.50
2017,06,24,00,06,17.40
2017,06,24,00,07,17.40
2017,06,24,00,08,17.30
2017,06,24,00,09,17.30
2017,06,24,00,10,17.30
2017,06,24,00,11,17.20
2017,06,24,00,12,17.20
2017,06,24,00,13,17.20
2017,06,24,00,14,17.10
2017,06,24,00,15,17.10
2017,06,24,00,16,17.10
2017,06,24,00,17,17.00
2017,06,24,00,18,17.00
2017,06,24,00,19,17.00
2017,06,24,00,20,16.90
2017,06,24,00,21,16.90
2017,06,24,00,22,16.90
2017,06,24,00,23,16.90
2017,06,24,00,24,16.90
2017,06,24,00,25,16.90
2017,06,24,00,26,16.80
2017,06,24,00,27,16.80
2017,06,24,00,28,16.80
2017,06,24,00,29,16.80
2017,06,24,00,30,16.80
2017,06,24,00,31,16.80
2017,06,24,00,32,16.80
2017,06,24,00,33,16.80
2017,06,24,00,34,16.80
2017,06,24,00,35,16.80
2017,06,24,00,36,16.80
2017,06,24,00,37,16.80
2017,06,24,00,38,16.80
2017,06,24,00,39,16.80
2017,06,24,00,40,16.80
2017,06,24,00,41,16.80
2017,06,24,00,42,16.80
2017,06,24,00,43,16.80
2017,06,24,00,44,16.80
2017,06,24,00,45,16.80
2017,06,24,00,46,16.80
2017,06,24,00,47,16.80
2017,06,24,00,48,16.80
2017,06,24,00,49,16.80
2017,06,24,00,50,16.80
2017,06,24,00,51,16.80
2017,06,24,00,52,16.80
2017,06,24,00,53,16.80
2017,06,24,00,54,16.80
2017,06,24,00,55,16.80
2017,06,24,00,56,16.70
2017,06,24,00,57,16.70
2017,06,24,00,58,16.70
2017,06,24,00,59,16.70
2017,06,24,01,00,16.70
2017,06,24,01,01,16.60
2017,06,24,01,02,16.60
2017,06,24,01,03,16.60
2017,06,24,01,04,16.60
2017,06,24,01,05,16.60
2017,06,24,01,06,16.50
2017,06,24,01,07,16.50
2017,06,24,01,08,16.50
2017,06,24,01,09,16.40
2017,06,24,01,10,16.40
2017,06,24,01,11,16.40
2017,06,24,01,12,16.40
2017,06,24,01,13,16.40
2017,06,24,01,14,16.30
2017,06,24,01,15,16.30
2017,06,24,01,16,16.30
2017,06,24,01,17,16.30
2017,06,24,01,18,16.20
2017,06,24,01,19,16.20
2017,06,24,01,20,16.20
2017,06,24,01,21,16.20
2017,06,24,01,22,16.20
2017,06,24,01,23,16.20
2017,06,24,01,24,16.10
2017,06,24,01,25,16.10
2017,06,24,01,26,16.10
2017,06,24,01,27,16.10
2017,06,24,01,28,16.10
2017,06,24,01,29,16.00
2017,06,24,01,30,16.00
2017,06,24,01,31,16.00
2017,06,24,01,32,16.00
2017,06,24,01,33,16.00
2017,06,24,01,34,16.00
2017,06,24,01,35,16.00
2017,06,24,01,36,15.90
2017,06,24,01,37,15.90
2017,06,24,01,38,15.90
2017,06,24,01,39,15.90
2017,06,24,01,40,15.90
2017,06,24,01,41,15.80
2017,06,24,01,42,15.80
2017,06,24,01,43,15.80
2017,06,24,01,44,15.80
2017,06,24,01,45,15.80
2017,06,24,01,46,15.70
2017,06,24,01,47,15.70
2017,06,24,01,48,15.70
2017,06,24,01,49,15.70
2017,06,24,01,50,15.70
2017,06,24,01,51,15.60
2017,06,24,01,52,15.60
2017,06,24,01,53,15.60
2017,06,24,01,54,15.60
2017,06,24,01,55,15.50
2017,06,24,01,56,15.50
2017,06,24,01,57,15.50
2017,06,24,01,58,15.40
2017,06,24,01,59,15.40
2017,06,24,02,00,15.40
2017,06,24,02,01,15.40
2017,06,24,02,02,15.40
2017,06,24,02,03,15.40
2017,06,24,02,04,15.30
2017,06,24,02,05,15.40
2017,06,24,02,06,15.40
2017,06,24,02,07,15.40
2017,06,24,02,08,15.40
2017,06,24,02,09,15.30
2017,06,24,02,10,15.30
2017,06,24,02,11,15.30
2017,06,24,02,12,15.30
2017,06,24,02,13,15.30
2017,06,24,02,14,15.30
2017,06,24,02,15,15.30
2017,06,24,02,16,15.30
2017,06,24,02,17,15.30
2017,06,24,02,18,15.20
2017,06,24,02,19,15.20
2017,06,24,02,20,15.20
2017,06,24,02,21,15.20
2017,06,24,02,22,15.20
2017,06,24,02,23,15.10
2017,06,24,02,24,15.10
2017,06,24,02,25,15.10
2017,06,24,02,26,15.10
2017,06,24,02,27,15.10
2017,06,24,02,28,15.20
2017,06,24,02,29,15.20
2017,06,24,02,30,15.20
2017,06,24,02,31,15.20
2017,06,24,02,32,15.20
2017,06,24,02,33,15.20
2017,06,24,02,34,15.20
2017,06,24,02,35,15.20
2017,06,24,02,36,15.10
2017,06,24,02,37,15.10
2017,06,24,02,38,15.10
2017,06,24,02,39,15.10
2017,06,24,02,40,15.10
2017,06,24,02,41,15.10
2017,06,24,02,42,15.10
2017,06,24,02,43,15.10
2017,06,24,02,44,15.10
2017,06,24,02,45,15.10
2017,06,24,02,46,15.00
2017,06,24,02,47,15.00
2017,06,24,02,48,15.00
2017,06,24,02,49,15.00
2017,06,24,02,50,15.00
2017,06,24,02,51,15.00
2017,06,24,02,52,14.90
2017,06,24,02,53,14.90
2017,06,24,02,54,14.90
2017,06,24,02,55,14.90
2017,06,24,02,56,14.90
2017,06,24,02,57,14.90
2017,06,24,02,58,14.90
2017,06,24,02,59,14.90
2017,06,24,03,00,14.90
2017,06,24,03,01,14.90
2017,06,24,03,02,14.90
2017,06,24,03,03,14.90
2017,06,24,03,04,14.90
2017,06,24,03,05,14.90
2017,06,24,03,06,14.90
2017,06,24,03,07,14.90
2017,06,24,03,08,14.80
2017,06,24,03,09,14.80
2017,06,24,03,10,14.80
2017,06,24,03,11,14.80
2017,06,24,03,12,14.80
2017,06,24,03,13,14.80
2017,06,24,03,14,14.80
2017,06,24,03,15,14.70
2017,06,24,03,16,14.70
2017,06,24,03,17,14.70
2017,06,24,03,18,14.70
2017,06,24,03,19,14.70
2017,06,24,03,20,14.70
2017,06,24,03,21,14.70
2017,06,24,03,22,14.70
2017,06,24,03,23,14.60
2017,06,24,03,24,14.60
2017,06,24,03,25,14.60
2017,06,24,03,26,14.60
2017,06,24,03,27,14.60
2017,06,24,03,28,14.60
2017,06,24,03,29,14.60
2017,06,24,03,30,14.60
2017,06,24,03,31,14.60
2017,06,24,03,32,14.60
2017,06,24,03,33,14.60
2017,06,24,03,34,14.60
2017,06,24,03,35,14.60
2017,06,24,03,36,14.60
2017,06,24,03,37,14.60
2017,06,24,03,38,14.60
2017,06,24,03,39,14.60
2017,06,24,03,40,14.60
2017,06,24,03,41,14.60
2017,06,24,03,42,14.60
2017,06,24,03,43,14.60
2017,06,24,03,44,14.60
2017,06,24,03,45,14.50
2017,06,24,03,46,14.50
2017,06,24,03,47,14.50
2017,06,24,03,48,14.40
2017,06,24,03,49,14.40
2017,06,24,03,50,14.40
2017,06,24,03,51,14.40
2017,06,24,03,52,14.40
2017,06,24,03,53,14.40
2017,06,24,03,54,14.40
2017,06,24,03,55,14.30
2017,06,24,03,56,14.30
2017,06,24,03,57,14.30
2017,06,24,03,58,14.30
2017,06,24,03,59,14.30
2017,06,24,04,00,14.30
2017,06,24,04,01,14.30
2017,06,24,04,02,14.30
2017,06,24,04,03,14.30
2017,06,24,04,04,14.20
2017,06,24,04,05,14.20
2017,06,24,04,06,14.20
2017,06,24,04,07,14.20
2017,06,24,04,08,14.20
2017,06,24,04,09,14.10
2017,06,24,04,10,14.10
2017,06,24,04,11,14.10
2017,06,24,04,12,14.10
2017,06,24,04,13,14.10
2017,06,24,04,14,14.00
2017,06,24,04,15,14.00
2017,06,24,04,16,14.00
2017,06,24,04,17,14.00
2017,06,24,04,18,13.90
2017,06,24,04,19,13.90
2017,06,24,04,20,13.90
2017,06,24,04,21,13.90
2017,06,24,04,22,13.90
2017,06,24,04,23,13.90
2017,06,24,04,24,13.80
2017,06,24,04,25,13.80
2017,06,24,04,26,13.80
2017,06,24,04,27,13.80
2017,06,24,04,28,13.80
2017,06,24,04,29,13.80
2017,06,24,04,30,13.80
2017,06,24,04,31,13.80
2017,06,24,04,32,13.80
2017,06,24,04,33,13.80
2017,06,24,04,34,13.80
2017,06,24,04,35,13.80
2017,06,24,04,36,13.80
2017,06,24,04,37,13.80
2017,06,24,04,38,13.80
2017,06,24,04,39,13.80
2017,06,24,04,40,13.80
2017,06,24,04,41,13.80
2017,06,24,04,42,13.80
2017,06,24,04,43,13.80
2017,06,24,04,44,13.80
2017,06,24,04,45,13.80
2017,06,24,04,46,13.80
2017,06,24,04,47,13.80
2017,06,24,04,48,13.80
2017,06,24,04,49,13.80
2017,06,24,04,50,13.80
2017,06,24,04,51,13.80
2017,06,24,04,52,13.80
2017,06,24,04,53,13.80
2017,06,24,04,54,13.80
2017,06,24,04,55,13.80
2017,06,24,04,56,13.80
2017,06,24,04,57,13.80
2017,06,24,04,58,13.80
2017,06,24,04,59,13.80
2017,06,24,05,00,13.80
2017,06,24,05,01,13.80
2017,06,24,05,02,13.80
2017,06,24,05,03,13.80
2017,06,24,05,04,13.70
2017,06,24,05,05,13.70
2017,06,24,05,06,13.70
2017,06,24,05,07,13.70
2017,06,24,05,08,13.70
2017,06,24,05,09,13.70
2017,06,24,05,10,13.70
2017,06,24,05,11,13.60
2017,06,24,05,12,13.60
2017,06,24,05,13,13.60
2017,06,24,05,14,13.60
2017,06,24,05,15,13.60
2017,06,24,05,16,13.60
2017,06,24,05,17,13.60
2017,06,24,05,18,13.60
2017,06,24,05,19,13.50
2017,06,24,05,20,13.50
2017,06,24,05,21,13.50
2017,06,24,05,22,13.50
2017,06,24,05,23,13.50
2017,06,24,05,24,13.40
2017,06,24,05,25,13.40
2017,06,24,05,26,13.40
2017,06,24,05,27,13.40
2017,06,24,05,28,13.40
2017,06,24,05,29,13.40
2017,06,24,05,30,13.40
2017,06,24,05,31,13.40
2017,06,24,05,32,13.30
2017,06,24,05,33,13.30
2017,06,24,05,34,13.30
2017,06,24,05,35,13.30
2017,06,24,05,36,13.30
2017,06,24,05,37,13.30
2017,06,24,05,38,13.30
2017,06,24,05,39,13.30
2017,06,24,05,40,13.30
2017,06,24,05,41,13.30
2017,06,24,05,42,13.30
2017,06,24,05,43,13.30
2017,06,24,05,44,13.30
2017,06,24,05,45,13.40
2017,06,24,05,46,13.40
2017,06,24,05,47,13.40
2017,06,24,05,48,13.40
2017,06,24,05,49,13.40
2017,06,24,05,50,13.40
2017,06,24,05,51,13.50
2017,06,24,05,52,13.50
2017,06,24,05,53,13.60
2017,06,24,05,54,13.60
2017,06,24,05,55,13.60
2017,06,24,05,56,13.70
2017,06,24,05,57,13.70
2017,06,24,05,58,13.70
2017,06,24,05,59,13.70
2017,06,24,06,00,13.80
2017,06,24,06,01,13.80
2017,06,24,06,02,13.90
2017,06,24,06,03,13.90
2017,06,24,06,04,14.00
2017,06,24,06,05,14.10
2017,06,24,06,06,14.10
2017,06,24,06,07,14.10
2017,06,24,06,08,14.20
2017,06,24,06,09,14.30
2017,06,24,06,10,14.40
2017,06,24,06,11,14.50
2017,06,24,06,12,14.50
2017,06,24,06,13,14.60
2017,06,24,06,14,14.60
2017,06,24,06,15,14.70
2017,06,24,06,16,14.80
2017,06,24,06,17,14.80
2017,06,24,06,18,14.90
2017,06,24,06,19,15.00
2017,06,24,06,20,15.10
2017,06,24,06,21,15.20
2017,06,24,06,22,15.20
2017,06,24,06,23,15.30
2017,06,24,06,24,15.40
2017,06,24,06,25,15.50
2017,06,24,06,26,15.50
2017,06,24,06,27,15.60
2017,06,24,06,28,15.60
2017,06,24,06,29,15.60
2017,06,24,06,30,15.60
2017,06,24,06,31,15.70
2017,06,24,06,32,15.70
2017,06,24,06,33,15.70
2017,06,24,06,34,15.80
2017,06,24,06,35,15.80
2017,06,24,06,36,15.90
2017,06,24,06,37,16.00
2017,06,24,06,38,16.00
2017,06,24,06,39,16.10
2017,06,24,06,40,16.10
2017,06,24,06,41,16.10
2017,06,24,06,42,16.10
2017,06,24,06,43,16.10
2017,06,24,06,44,16.20
2017,06,24,06,45,16.20
2017,06,24,06,46,16.20
2017,06,24,06,47,16.30
2017,06,24,06,48,16.30
2017,06,24,06,49,16.30
2017,06,24,06,50,16.40
2017,06,24,06,51,16.40
2017,06,24,06,52,16.50
2017,06,24,06,53,16.50
2017,06,24,06,54,16.60
2017,06,24,06,55,16.70
2017,06,24,06,56,16.70
2017,06,24,06,57,16.80
2017,06,24,06,58,16.80
2017,06,24,06,59,16.90
2017,06,24,07,00,16.90
2017,06,24,07,01,17.00
2017,06,24,07,02,17.00
2017,06,24,07,03,17.10
2017,06,24,07,04,17.20
2017,06,24,07,05,17.30
2017,06,24,07,06,17.30
2017,06,24,07,07,17.40
2017,06,24,07,08,17.50
2017,06,24,07,09,17.50
2017,06,24,07,10,17.60
2017,06,24,07,11,17.60
2017,06,24,07,12,17.70
2017,06,24,07,13,17.70
2017,06,24,07,14,17.80
2017,06,24,07,15,17.80
2017,06,24,07,16,17.90
2017,06,24,07,17,17.90
2017,06,24,07,18,18.00
2017,06,24,07,19,18.10
2017,06,24,07,20,18.10
2017,06,24,07,21,18.20
2017,06,24,07,22,18.20
2017,06,24,07,23,18.30
2017,06,24,07,24,18.30
2017,06,24,07,25,18.40
2017,06,24,07,26,18.40
2017,06,24,07,27,18.50
2017,06,24,07,28,18.60
2017,06,24,07,29,18.70
2017,06,24,07,30,18.70
2017,06,24,07,31,18.80
2017,06,24,07,32,18.90
2017,06,24,07,33,19.00
2017,06,24,07,34,19.10
2017,06,24,07,35,19.10
2017,06,24,07,36,19.20
2017,06,24,07,37,19.30
2017,06,24,07,38,19.30
2017,06,24,07,39,19.40
2017,06,24,07,40,19.50
2017,06,24,07,41,19.60
2017,06,24,07,42,19.60
2017,06,24,07,43,19.70
2017,06,24,07,44,19.80
2017,06,24,07,45,19.80
2017,06,24,07,46,19.80
2017,06,24,07,47,19.90
2017,06,24,07,48,19.90
2017,06,24,07,49,19.90
2017,06,24,07,50,19.90
2017,06,24,07,51,19.90
2017,06,24,07,52,19.90
2017,06,24,07,53,19.90
2017,06,24,07,54,19.90
2017,06,24,07,55,20.00
2017,06,24,07,56,20.00
2017,06,24,07,57,20.00
2017,06,24,07,58,20.10
2017,06,24,07,59,20.10
2017,06,24,08,00,20.20
2017,06,24,08,01,20.20
2017,06,24,08,02,20.30
2017,06,24,08,03,20.30
2017,06,24,08,04,20.40
2017,06,24,08,05,20.40
2017,06,24,08,06,20.40
2017,06,24,08,07,20.50
2017,06,24,08,08,20.50
2017,06,24,08,09,20.60
2017,06,24,08,10,20.60
2017,06,24,08,11,20.60
2017,06,24,08,12,20.70
2017,06,24,08,13,20.70
2017,06,24,08,14,20.80
2017,06,24,08,15,20.80
2017,06,24,08,16,20.80
2017,06,24,08,17,20.90
2017,06,24,08,18,20.90
2017,06,24,08,19,20.90
2017,06,24,08,20,20.90
2017,06,24,08,21,20.90
2017,06,24,08,22,20.90
2017,06,24,08,23,20.90
2017,06,24,08,24,20.90
2017,06,24,08,25,21.00
2017,06,24,08,26,21.00
2017,06,24,08,27,21.00
2017,06,24,08,28,21.10
2017,06,24,08,29,21.10
2017,06,24,08,30,21.20
2017,06,24,08,31,21.20
2017,06,24,08,32,21.30
2017,06,24,08,33,21.30
2017,06,24,08,34,21.30
2017,06,24,08,35,21.40
2017,06,24,08,36,21.40
2017,06,24,08,37,21.40
2017,06,24,08,38,21.50
2017,06,24,08,39,21.50
2017,06,24,08,40,21.60
2017,06,24,08,41,21.60
2017,06,24,08,42,21.60
2017,06,24,08,43,21.70
2017,06,24,08,44,21.70
2017,06,24,08,45,21.80
2017,06,24,08,46,21.90
2017,06,24,08,47,22.00
2017,06,24,08,48,22.00
2017,06,24,08,49,22.10
2017,06,24,08,50,22.10
2017,06,24,08,51,22.10
2017,06,24,08,52,22.20
2017,06,24,08,53,22.20
2017,06,24,08,54,22.20
2017,06,24,08,55,22.20
2017,06,24,08,56,22.30
2017,06,24,08,57,22.20
2017,06,24,08,58,22.20
2017,06,24,08,59,22.20
2017,06,24,09,00,22.20
2017,06,24,09,01,22.20
2017,06,24,09,02,22.20
2017,06,24,09,03,22.20
2017,06,24,09,04,22.20
2017,06,24,09,05,22.30
2017,06,24,09,06,22.30
2017,06,24,09,07,22.40
2017,06,24,09,08,22.50
2017,06,24,09,09,22.50
2017,06,24,09,10,22.50
2017,06,24,09,11,22.60
2017,06,24,09,12,22.60
2017,06,24,09,13,22.60
2017,06,24,09,14,22.60
2017,06,24,09,15,22.60
2017,06,24,09,16,22.60
2017,06,24,09,17,22.60
2017,06,24,09,18,22.70
2017,06,24,09,19,22.70
2017,06,24,09,20,22.70
2017,06,24,09,21,22.70
2017,06,24,09,22,22.70
2017,06,24,09,23,22.70
2017,06,24,09,24,22.70
2017,06,24,09,25,22.70
2017,06,24,09,26,22.70
2017,06,24,09,27,22.70
2017,06,24,09,28,22.70
2017,06,24,09,29,22.80
2017,06,24,09,30,22.80
2017,06,24,09,31,22.80
2017,06,24,09,32,22.90
2017,06,24,09,33,22.90
2017,06,24,09,34,23.00
2017,06,24,09,35,23.00
2017,06,24,09,36,23.10
2017,06,24,09,37,23.10
2017,06,24,09,38,23.10
2017,06,24,09,39,23.10
2017,06,24,09,40,23.00
2017,06,24,09,41,22.90
2017,06,24,09,42,22.90
2017,06,24,09,43,22.80
2017,06,24,09,44,22.80
2017,06,24,09,45,22.90
2017,06,24,09,46,22.90
2017,06,24,09,47,22.90
2017,06,24,09,48,22.90
2017,06,24,09,49,22.90
2017,06,24,09,50,23.00
2017,06,24,09,51,23.00
2017,06,24,09,52,23.10
2017,06,24,09,53,23.20
2017,06,24,09,54,23.20
2017,06,24,09,55,23.30
2017,06,24,09,56,23.30
2017,06,24,09,57,23.30
2017,06,24,09,58,23.30
2017,06,24,09,59,23.30
2017,06,24,10,00,23.30
2017,06,24,10,01,23.30
2017,06,24,10,02,23.20
2017,06,24,10,03,23.20
2017,06,24,10,04,23.10
2017,06,24,10,05,23.10
2017,06,24,10,06,23.00
2017,06,24,10,07,23.00
2017,06,24,10,08,22.90
2017,06,24,10,09,22.90
2017,06,24,10,10,22.90
2017,06,24,10,11,22.90
2017,06,24,10,12,22.90
2017,06,24,10,13,23.00
2017,06,24,10,14,23.10
2017,06,24,10,15,23.10
2017,06,24,10,16,23.10
2017,06,24,10,17,23.10
2017,06,24,10,18,23.10
2017,06,24,10,19,23.10
2017,06,24,10,20,23.10
2017,06,24,10,21,23.10
2017,06,24,10,22,23.10
2017,06,24,10,23,23.20
2017,06,24,10,24,23.20
2017,06,24,10,25,23.30
2017,06,24,10,26,23.40
2017,06,24,10,27,23.40
2017,06,24,10,28,23.40
2017,06,24,10,29,23.40
2017,06,24,10,30,23.40
2017,06,24,10,31,23.40
2017,06,24,10,32,23.40
2017,06,24,10,33,23.40
2017,06,24,10,34,23.40
2017,06,24,10,35,23.40
2017,06,24,10,36,23.50
2017,06,24,10,37,23.50
2017,06,24,10,38,23.60
2017,06,24,10,39,23.60
2017,06,24,10,40,23.70
2017,06,24,10,41,23.70
2017,06,24,10,42,23.70
2017,06,24,10,43,23.80
2017,06,24,10,44,23.80
2017,06,24,10,45,23.70
2017,06,24,10,46,23.70
2017,06,24,10,47,23.80
2017,06,24,10,48,23.80
2017,06,24,10,49,23.70
2017,06,24,10,50,23.70
2017,06,24,10,51,23.70
2017,06,24,10,52,23.70
2017,06,24,10,53,23.70
2017,06,24,10,54,23.70
2017,06,24,10,55,23.70
2017,06,24,10,56,23.70
2017,06,24,10,57,23.70
2017,06,24,10,58,23.80
2017,06,24,10,59,23.80
2017,06,24,11,00,23.90
2017,06,24,11,01,23.90
2017,06,24,11,02,23.90
2017,06,24,11,03,24.00
2017,06,24,11,04,24.00
2017,06,24,11,05,23.90
2017,06,24,11,06,24.00
2017,06,24,11,07,24.00
2017,06,24,11,08,24.10
2017,06,24,11,09,24.10
2017,06,24,11,10,24.10
2017,06,24,11,11,24.20
2017,06,24,11,12,24.20
2017,06,24,11,13,24.20
2017,06,24,11,14,24.20
2017,06,24,11,15,24.20
2017,06,24,11,16,24.20
2017,06,24,11,17,24.30
2017,06,24,11,18,24.30
2017,06,24,11,19,24.30
2017,06,24,11,20,24.30
2017,06,24,11,21,24.30
2017,06,24,11,22,24.30
2017,06,24,11,23,24.30
2017,06,24,11,24,24.30
2017,06,24,11,25,24.30
2017,06,24,11,26,24.30
2017,06,24,11,27,24.30
2017,06,24,11,28,24.30
2017,06,24,11,29,24.40
2017,06,24,11,30,24.50
2017,06,24,11,31,24.50
2017,06,24,11,32,24.50
2017,06,24,11,33,24.60
2017,06,24,11,34,24.60
2017,06,24,11,35,24.70
2017,06,24,11,36,24.70
2017,06,24,11,37,24.80
2017,06,24,11,38,24.80
2017,06,24,11,39,24.70
2017,06,24,11,40,24.70
2017,06,24,11,41,24.70
2017,06,24,11,42,24.70
2017,06,24,11,43,24.70
2017,06,24,11,44,24.80
2017,06,24,11,45,24.90
2017,06,24,11,46,24.90
2017,06,24,11,47,24.90
2017,06,24,11,48,24.90
2017,06,24,11,49,25.00
2017,06,24,11,50,25.10
2017,06,24,11,51,25.10
2017,06,24,11,52,25.10
2017,06,24,11,53,25.10
2017,06,24,11,54,25.10
2017,06,24,11,55,25.10
2017,06,24,11,56,25.10
2017,06,24,11,57,25.10
2017,06,24,11,58,25.00
2017,06,24,11,59,25.00
2017,06,24,12,00,25.00
2017,06,24,12,01,25.00
2017,06,24,12,02,24.90
2017,06,24,12,03,25.00
2017,06,24,12,04,25.00
2017,06,24,12,05,25.10
2017,06,24,12,06,25.10
2017,06,24,12,07,25.10
2017,06,24,12,08,25.10
2017,06,24,12,09,25.10
2017,06,24,12,10,25.10
2017,06,24,12,11,25.10
2017,06,24,12,12,25.20
2017,06,24,12,13,25.20
2017,06,24,12,14,25.30
2017,06,24,12,15,25.30
2017,06,24,12,16,25.30
2017,06,24,12,17,25.30
2017,06,24,12,18,25.30
2017,06,24,12,19,25.30
2017,06,24,12,20,25.20
2017,06,24,12,21,25.20
2017,06,24,12,22,25.20
2017,06,24,12,23,25.20
2017,06,24,12,24,25.30
2017,06,24,12,25,25.30
2017,06,24,12,26,25.40
2017,06,24,12,27,25.50
2017,06,24,12,28,25.60
2017,06,24,12,29,25.60
2017,06,24,12,30,25.70
2017,06,24,12,31,25.70
2017,06,24,12,32,25.70
2017,06,24,12,33,25.80
2017,06,24,12,34,25.80
2017,06,24,12,35,25.90
2017,06,24,12,36,25.90
2017,06,24,12,37,25.90
2017,06,24,12,38,25.90
2017,06,24,12,39,25.80
2017,06,24,12,40,25.80
2017,06,24,12,41,25.90
2017,06,24,12,42,25.90
2017,06,24,12,43,25.90
2017,06,24,12,44,25.90
2017,06,24,12,45,25.90
2017,06,24,12,46,25.80
2017,06,24,12,47,25.80
2017,06,24,12,48,25.80
2017,06,24,12,49,25.80
2017,06,24,12,50,25.90
2017,06,24,12,51,25.90
2017,06,24,12,52,25.90
2017,06,24,12,53,25.90
2017,06,24,12,54,26.00
2017,06,24,12,55,26.00
2017,06,24,12,56,26.10
2017,06,24,12,57,26.20
2017,06,24,12,58,26.10
2017,06,24,12,59,26.10
2017,06,24,13,00,26.00
2017,06,24,13,01,25.90
2017,06,24,13,02,25.90
2017,06,24,13,03,25.80
2017,06,24,13,04,25.80
2017,06,24,13,05,25.70
2017,06,24,13,06,25.60
2017,06,24,13,07,25.50
2017,06,24,13,08,25.40
2017,06,24,13,09,25.40
2017,06,24,13,10,25.30
2017,06,24,13,11,25.30
2017,06,24,13,12,25.30
2017,06,24,13,13,25.30
2017,06,24,13,14,25.30
2017,06,24,13,15,25.40
2017,06,24,13,16,25.40
2017,06,24,13,17,25.30
2017,06,24,13,18,25.30
2017,06,24,13,19,25.30
2017,06,24,13,20,25.30
2017,06,24,13,21,25.40
2017,06,24,13,22,25.40
2017,06,24,13,23,25.50
2017,06,24,13,24,25.60
2017,06,24,13,25,25.60
2017,06,24,13,26,25.70
2017,06,24,13,27,25.70
2017,06,24,13,28,25.70
2017,06,24,13,29,25.70
2017,06,24,13,30,25.80
2017,06,24,13,31,25.80
2017,06,24,13,32,25.90
2017,06,24,13,33,26.00
2017,06,24,13,34,26.10
2017,06,24,13,35,26.20
2017,06,24,13,36,26.20
2017,06,24,13,37,26.30
2017,06,24,13,38,26.30
2017,06,24,13,39,26.30
2017,06,24,13,40,26.30
2017,06,24,13,41,26.30
2017,06,24,13,42,26.20
2017,06,24,13,43,26.20
2017,06,24,13,44,26.20
2017,06,24,13,45,26.30
2017,06,24,13,46,26.30
2017,06,24,13,47,26.50
2017,06,24,13,48,26.60
2017,06,24,13,49,26.70
2017,06,24,13,50,26.70
2017,06,24,13,51,26.80
2017,06,24,13,52,26.80
2017,06,24,13,53,26.80
2017,06,24,13,54,26.80
2017,06,24,13,55,26.80
2017,06,24,13,56,26.90
2017,06,24,13,57,26.90
2017,06,24,13,58,27.00
2017,06,24,13,59,27.00
2017,06,24,14,00,27.10
2017,06,24,14,01,27.20
2017,06,24,14,02,27.20
2017,06,24,14,03,27.30
2017,06,24,14,04,27.40
2017,06,24,14,05,27.40
2017,06,24,14,06,27.40
2017,06,24,14,07,27.40
2017,06,24,14,08,27.50
2017,06,24,14,09,27.40
2017,06,24,14,10,27.30
2017,06,24,14,11,27.30
2017,06,24,14,12,27.20
2017,06,24,14,13,27.20
2017,06,24,14,14,27.20
2017,06,24,14,15,27.20
2017,06,24,14,16,27.20
2017,06,24,14,17,27.20
2017,06,24,14,18,27.20
2017,06,24,14,19,27.20
2017,06,24,14,20,27.20
2017,06,24,14,21,27.20
2017,06,24,14,22,27.20
2017,06,24,14,23,27.20
2017,06,24,14,24,27.10
2017,06,24,14,25,27.10
2017,06,24,14,26,27.10
2017,06,24,14,27,27.10
2017,06,24,14,28,27.10
2017,06,24,14,29,27.20
2017,06,24,14,30,27.20
2017,06,24,14,31,27.30
2017,06,24,14,32,27.30
2017,06,24,14,33,27.40
2017,06,24,14,34,27.40
2017,06,24,14,35,27.50
2017,06,24,14,36,27.60
2017,06,24,14,37,27.70
2017,06,24,14,38,27.70
2017,06,24,14,39,27.70
2017,06,24,14,40,27.80
2017,06,24,14,41,27.80
2017,06,24,14,42,27.90
2017,06,24,14,43,27.90
2017,06,24,14,44,28.00
2017,06,24,14,45,28.00
2017,06,24,14,46,28.10
2017,06,24,14,47,28.20
2017,06,24,14,48,28.20
2017,06,24,14,49,28.20
2017,06,24,14,50,28.20
2017,06,24,14,51,28.30
2017,06,24,14,52,28.30
2017,06,24,14,53,28.30
2017,06,24,14,54,28.40
2017,06,24,14,55,28.50
2017,06,24,14,56,28.50
2017,06,24,14,57,28.50
2017,06,24,14,58,28.50
2017,06,24,14,59,28.50
2017,06,24,15,00,28.40
2017,06,24,15,01,28.30
2017,06,24,15,02,28.30
2017,06,24,15,03,28.20
2017,06,24,15,04,28.20
2017,06,24,15,05,28.20
2017,06,24,15,06,28.20
2017,06,24,15,07,28.10
2017,06,24,15,08,28.10
2017,06,24,15,09,28.20
2017,06,24,15,10,28.30
2017,06,24,15,11,28.30
2017,06,24,15,12,28.40
2017,06,24,15,13,28.50
2017,06,24,15,14,28.60
2017,06,24,15,15,28.60
2017,06,24,15,16,28.60
2017,06,24,15,17,28.50
2017,06,24,15,18,28.50
2017,06,24,15,19,28.40
2017,06,24,15,20,28.40
2017,06,24,15,21,28.40
2017,06,24,15,22,28.40
2017,06,24,15,23,28.40
2017,06,24,15,24,28.30
2017,06,24,15,25,28.30
2017,06,24,15,26,28.20
2017,06,24,15,27,28.20
2017,06,24,15,28,28.30
2017,06,24,15,29,28.30
2017,06,24,15,30,28.30
2017,06,24,15,31,28.20
2017,06,24,15,32,28.20
2017,06,24,15,33,28.20
2017,06,24,15,34,28.30
2017,06,24,15,35,28.30
2017,06,24,15,36,28.30
2017,06,24,15,37,28.30
2017,06,24,15,38,28.40
2017,06,24,15,39,28.50
2017,06,24,15,40,28.50
2017,06,24,15,41,28.60
2017,06,24,15,42,28.70
2017,06,24,15,43,28.70
2017,06,24,15,44,28.80
2017,06,24,15,45,28.80
2017,06,24,15,46,28.90
2017,06,24,15,47,28.90
2017,06,24,15,48,28.90
2017,06,24,15,49,28.90
2017,06,24,15,50,28.90
2017,06,24,15,51,29.00
2017,06,24,15,52,29.00
2017,06,24,15,53,28.90
2017,06,24,15,54,28.90
2017,06,24,15,55,28.90
2017,06,24,15,56,28.90
2017,06,24,15,57,29.00
2017,06,24,15,58,29.10
2017,06,24,15,59,29.20
2017,06,24,16,00,29.30
2017,06,24,16,01,29.30
2017,06,24,16,02,29.40
2017,06,24,16,03,29.50
2017,06,24,16,04,29.50
2017,06,24,16,05,29.40
2017,06,24,16,06,29.40
2017,06,24,16,07,29.40
2017,06,24,16,08,29.40
2017,06,24,16,09,29.30
2017,06,24,16,10,29.30
2017,06,24,16,11,29.40
2017,06,24,16,12,29.40
2017,06,24,16,13,29.40
2017,06,24,16,14,29.30
2017,06,24,16,15,29.30
2017,06,24,16,16,29.30
2017,06,24,16,17,29.30
2017,06,24,16,18,29.20
2017,06,24,16,19,29.10
2017,06,24,16,20,29.10
2017,06,24,16,21,29.10
2017,06,24,16,22,29.10
2017,06,24,16,23,29.10
2017,06,24,16,24,29.10
2017,06,24,16,25,29.20
2017,06,24,16,26,29.20
2017,06,24,16,27,29.20
2017,06,24,16,28,29.20
2017,06,24,16,29,29.20
2017,06,24,16,30,29.40
2017,06,24,16,31,29.50
2017,06,24,16,32,29.50
2017,06,24,16,33,29.60
2017,06,24,16,34,29.60
2017,06,24,16,35,29.60
2017,06,24,16,36,29.60
2017,06,24,16,37,29.60
2017,06,24,16,38,29.60
2017,06,24,16,39,29.60
2017,06,24,16,40,29.50
2017,06,24,16,41,29.60
2017,06,24,16,42,29.60
2017,06,24,16,43,29.60
2017,06,24,16,44,29.60
2017,06,24,16,45,29.60
2017,06,24,16,46,29.60
2017,06,24,16,47,29.70
2017,06,24,16,48,29.70
2017,06,24,16,49,29.70
2017,06,24,16,50,29.80
2017,06,24,16,51,29.80
2017,06,24,16,52,29.80
2017,06,24,16,53,29.90
2017,06,24,16,54,29.90
2017,06,24,16,55,29.90
2017,06,24,16,56,29.90
2017,06,24,16,57,29.90
2017,06,24,16,58,29.90
2017,06,24,16,59,29.90
2017,06,24,17,00,30.00
2017,06,24,17,01,30.00
2017,06,24,17,02,30.00
2017,06,24,17,03,29.90
2017,06,24,17,04,29.80
2017,06,24,17,05,29.80
2017,06,24,17,06,29.70
2017,06,24,17,07,29.70
2017,06,24,17,08,29.70
2017,06,24,17,09,29.70
2017,06,24,17,10,29.80
2017,06,24,17,11,29.80
2017,06,24,17,12,29.90
2017,06,24,17,13,29.90
2017,06,24,17,14,29.90
2017,06,24,17,15,29.90
2017,06,24,17,16,29.90
2017,06,24,17,17,29.80
2017,06,24,17,18,29.90
2017,06,24,17,19,29.90